Time,TemperatureF,DewpointF,PressureIn,WindDirection,WindDirectionDegrees,WindSpeedMPH,WindSpeedGustMPH,Humidity,HourlyPrecipIn,Conditions,Clouds,dailyrainin,SoftwareType,DateUTC
2013-05-04 00:01:00,47.8,42.0,29.95,NNW,337,1.4,1.6,79,0.00,,,0.00,Rainwise IP-100,2013-05-04 04:01:00,
2013-05-04 00:06:00,47.7,41.0,29.95,NNW,337,2.1,2.3,80,0.00,,,0.00,Rainwise IP-100,2013-05-04 04:06:00,
2013-05-04 00:11:00,47.7,41.0,29.95,NW,315,2.3,3.7,80,0.00,,,0.00,Rainwise IP-100,2013-05-04 04:11:00,
2013-05-04 00:16:00,47.7,41.0,29.95,NNW,337,2.1,4.2,80,0.00,,,0.00,Rainwise IP-100,2013-05-04 04:16:00,
2013-05-04 00:21:00,47.5,41.0,29.95,NNW,337,3.7,4.4,80,0.00,,,0.00,Rainwise IP-100,2013-05-04 04:21:00,
2013-05-04 00:26:00,47.3,41.0,29.95,NNW,337,2.3,4.0,80,0.00,,,0.00,Rainwise IP-100,2013-05-04 04:26:00,
2013-05-04 00:31:00,47.2,41.0,29.95,NNW,337,0.0,4.2,81,0.00,,,0.00,Rainwise IP-100,2013-05-04 04:31:00,
2013-05-04 00:36:00,47.0,41.0,29.94,NNW,337,0.0,2.3,81,0.00,,,0.00,Rainwise IP-100,2013-05-04 04:36:00,
2013-05-04 00:41:00,46.7,41.0,29.95,NNW,337,1.6,2.1,82,0.00,,,0.00,Rainwise IP-100,2013-05-04 04:41:00,
2013-05-04 00:46:00,46.5,41.0,29.94,NNW,337,0.0,2.6,82,0.00,,,0.00,Rainwise IP-100,2013-05-04 04:46:00,
2013-05-04 00:51:00,46.3,41.0,29.94,NNW,337,0.0,0.0,83,0.00,,,0.00,Rainwise IP-100,2013-05-04 04:51:00,
2013-05-04 00:56:00,46.1,41.0,29.94,NNW,337,0.0,1.2,83,0.00,,,0.00,Rainwise IP-100,2013-05-04 04:56:00,
2013-05-04 01:00:00,45.9,41.0,29.94,NNW,337,0.0,0.0,83,0.00,,,0.00,Rainwise IP-100,2013-05-04 05:00:00,
2013-05-04 01:06:00,45.6,41.0,29.94,NNW,337,1.4,1.9,84,0.00,,,0.00,Rainwise IP-100,2013-05-04 05:06:00,
2013-05-04 01:11:00,45.6,41.0,29.94,NNW,337,2.6,2.6,85,0.00,,,0.00,Rainwise IP-100,2013-05-04 05:11:00,
2013-05-04 01:16:00,45.6,41.0,29.94,NNW,337,0.0,2.6,85,0.00,,,0.00,Rainwise IP-100,2013-05-04 05:16:00,
2013-05-04 01:21:00,45.3,41.0,29.93,NNW,337,0.0,1.2,85,0.00,,,0.00,Rainwise IP-100,2013-05-04 05:21:00,
2013-05-04 01:26:00,45.0,41.0,29.93,NNW,337,0.0,3.3,85,0.00,,,0.00,Rainwise IP-100,2013-05-04 05:26:00,
2013-05-04 01:31:00,45.0,41.0,29.93,NNW,337,0.0,0.0,86,0.00,,,0.00,Rainwise IP-100,2013-05-04 05:31:00,
2013-05-04 01:36:00,44.9,41.0,29.93,NNW,337,0.0,1.9,86,0.00,,,0.00,Rainwise IP-100,2013-05-04 05:36:00,
2013-05-04 01:41:00,44.7,41.0,29.93,NNW,337,0.0,1.6,87,0.00,,,0.00,Rainwise IP-100,2013-05-04 05:41:00,
2013-05-04 01:46:00,44.6,41.0,29.92,NNW,337,0.0,1.4,87,0.00,,,0.00,Rainwise IP-100,2013-05-04 05:46:00,
2013-05-04 01:51:00,44.5,41.0,29.92,NNW,337,0.0,0.0,88,0.00,,,0.00,Rainwise IP-100,2013-05-04 05:51:00,
2013-05-04 01:56:00,44.4,41.0,29.92,NNW,337,0.0,0.0,88,0.00,,,0.00,Rainwise IP-100,2013-05-04 05:56:00,
2013-05-04 02:01:00,44.3,41.0,29.92,NNW,337,0.0,0.0,88,0.00,,,0.00,Rainwise IP-100,2013-05-04 06:01:00,
2013-05-04 02:06:00,44.1,41.0,29.91,NNW,337,0.0,0.0,88,0.00,,,0.00,Rainwise IP-100,2013-05-04 06:06:00,
2013-05-04 02:12:00,43.9,41.0,29.92,NNW,337,0.0,0.0,88,0.00,,,0.00,Rainwise IP-100,2013-05-04 06:12:00,
2013-05-04 02:17:00,43.5,41.0,29.91,NNW,337,0.0,0.0,88,0.00,,,0.00,Rainwise IP-100,2013-05-04 06:17:00,
2013-05-04 02:22:00,43.2,40.0,29.92,NNW,337,0.0,0.0,89,0.00,,,0.00,Rainwise IP-100,2013-05-04 06:22:00,
2013-05-04 02:27:00,43.0,40.0,29.91,NNW,337,0.0,0.0,89,0.00,,,0.00,Rainwise IP-100,2013-05-04 06:27:00,
2013-05-04 02:32:00,42.8,40.0,29.91,NNW,337,0.0,0.0,90,0.00,,,0.00,Rainwise IP-100,2013-05-04 06:32:00,
2013-05-04 02:37:00,42.7,40.0,29.91,NNW,337,0.0,0.0,90,0.00,,,0.00,Rainwise IP-100,2013-05-04 06:37:00,
2013-05-04 02:42:00,42.7,40.0,29.91,NNW,337,0.0,2.8,91,0.00,,,0.00,Rainwise IP-100,2013-05-04 06:42:00,
2013-05-04 02:47:00,42.7,40.0,29.91,NNW,337,0.0,0.0,91,0.00,,,0.00,Rainwise IP-100,2013-05-04 06:47:00,
2013-05-04 02:52:00,42.5,41.0,29.91,NNW,337,0.0,1.2,92,0.00,,,0.00,Rainwise IP-100,2013-05-04 06:52:00,
2013-05-04 02:57:00,42.5,41.0,29.91,NNW,337,0.0,0.0,92,0.00,,,0.00,Rainwise IP-100,2013-05-04 06:57:00,
2013-05-04 03:02:00,42.4,40.0,29.91,NNW,337,1.2,4.0,92,0.00,,,0.00,Rainwise IP-100,2013-05-04 07:02:00,
2013-05-04 03:07:00,42.4,40.0,29.91,NNW,337,2.6,3.0,92,0.00,,,0.00,Rainwise IP-100,2013-05-04 07:07:00,
2013-05-04 03:12:00,42.6,41.0,29.91,NNW,337,2.6,3.5,92,0.00,,,0.00,Rainwise IP-100,2013-05-04 07:12:00,
2013-05-04 03:17:00,42.6,41.0,29.91,NNW,337,3.7,4.4,92,0.00,,,0.00,Rainwise IP-100,2013-05-04 07:17:00,
2013-05-04 03:22:00,42.6,41.0,29.90,NNW,337,1.6,4.2,92,0.00,,,0.00,Rainwise IP-100,2013-05-04 07:22:00,
2013-05-04 03:28:00,42.4,40.0,29.91,NNW,337,2.1,3.0,92,0.00,,,0.00,Rainwise IP-100,2013-05-04 07:28:00,
2013-05-04 03:33:00,42.1,40.0,29.91,NNW,337,1.6,2.6,92,0.00,,,0.00,Rainwise IP-100,2013-05-04 07:33:00,
2013-05-04 03:38:00,41.9,40.0,29.91,NNW,337,0.0,2.1,92,0.00,,,0.00,Rainwise IP-100,2013-05-04 07:38:00,
2013-05-04 03:43:00,41.9,40.0,29.91,NNW,337,0.0,0.0,92,0.00,,,0.00,Rainwise IP-100,2013-05-04 07:43:00,
2013-05-04 03:48:00,41.8,40.0,29.91,NNW,337,0.0,0.0,93,0.00,,,0.00,Rainwise IP-100,2013-05-04 07:48:00,
2013-05-04 03:53:00,41.6,40.0,29.91,NNW,337,0.0,0.0,93,0.00,,,0.00,Rainwise IP-100,2013-05-04 07:53:00,
2013-05-04 03:58:00,41.6,40.0,29.91,NNW,337,0.0,0.0,93,0.00,,,0.00,Rainwise IP-100,2013-05-04 07:58:00,
2013-05-04 04:03:00,41.5,40.0,29.91,NNW,337,0.0,0.0,93,0.00,,,0.00,Rainwise IP-100,2013-05-04 08:03:00,
2013-05-04 04:08:00,41.4,39.0,29.91,NNW,337,0.0,0.0,94,0.00,,,0.00,Rainwise IP-100,2013-05-04 08:08:00,
2013-05-04 04:13:00,41.2,39.0,29.91,NNW,337,0.0,0.0,94,0.00,,,0.00,Rainwise IP-100,2013-05-04 08:13:00,
2013-05-04 04:18:00,41.1,39.0,29.91,NNW,337,0.0,0.0,94,0.00,,,0.00,Rainwise IP-100,2013-05-04 08:18:00,
2013-05-04 04:23:00,41.1,39.0,29.91,NNW,337,0.0,0.0,94,0.00,,,0.00,Rainwise IP-100,2013-05-04 08:23:00,
2013-05-04 04:28:00,41.0,39.0,29.91,NNW,337,0.0,0.0,94,0.00,,,0.00,Rainwise IP-100,2013-05-04 08:28:00,
2013-05-04 04:33:00,40.8,39.0,29.91,NNW,337,0.0,0.0,94,0.00,,,0.00,Rainwise IP-100,2013-05-04 08:33:00,
2013-05-04 04:38:00,40.7,39.0,29.91,NNW,337,0.0,0.0,94,0.00,,,0.00,Rainwise IP-100,2013-05-04 08:38:00,
2013-05-04 04:44:00,40.7,40.0,29.91,NNW,337,0.0,0.0,95,0.00,,,0.00,Rainwise IP-100,2013-05-04 08:44:00,
2013-05-04 04:49:00,40.5,40.0,29.91,NNW,337,0.0,0.0,95,0.00,,,0.00,Rainwise IP-100,2013-05-04 08:49:00,
2013-05-04 04:54:00,40.4,39.0,29.91,NNW,337,0.0,0.0,95,0.00,,,0.00,Rainwise IP-100,2013-05-04 08:54:00,
2013-05-04 04:59:00,40.3,39.0,29.91,NNW,337,0.0,0.0,95,0.00,,,0.00,Rainwise IP-100,2013-05-04 08:59:00,
2013-05-04 05:04:00,40.1,39.0,29.91,NNW,337,0.0,0.0,95,0.00,,,0.00,Rainwise IP-100,2013-05-04 09:04:00,
2013-05-04 05:09:00,39.9,39.0,29.91,NNW,337,0.0,0.0,95,0.00,,,0.00,Rainwise IP-100,2013-05-04 09:09:00,
2013-05-04 05:14:00,39.8,39.0,29.91,NNW,337,0.0,0.0,95,0.00,,,0.00,Rainwise IP-100,2013-05-04 09:14:00,
2013-05-04 05:19:00,39.8,39.0,29.91,NNW,337,0.0,0.0,96,0.00,,,0.00,Rainwise IP-100,2013-05-04 09:19:00,
2013-05-04 05:24:00,39.9,39.0,29.91,NNW,337,0.0,0.0,96,0.00,,,0.00,Rainwise IP-100,2013-05-04 09:24:00,
2013-05-04 05:29:00,39.9,39.0,29.92,NNW,337,0.0,0.0,96,0.00,,,0.00,Rainwise IP-100,2013-05-04 09:29:00,
2013-05-04 05:34:00,39.8,39.0,29.92,NNW,337,0.0,0.0,96,0.00,,,0.00,Rainwise IP-100,2013-05-04 09:34:00,
2013-05-04 05:39:00,39.5,39.0,29.92,NNW,337,0.0,0.0,96,0.00,,,0.00,Rainwise IP-100,2013-05-04 09:39:00,
2013-05-04 05:44:00,39.2,38.0,29.92,NNW,337,0.0,0.0,96,0.00,,,0.00,Rainwise IP-100,2013-05-04 09:44:00,
2013-05-04 05:49:00,39.1,38.0,29.92,NNW,337,0.0,2.1,96,0.00,,,0.00,Rainwise IP-100,2013-05-04 09:49:00,
2013-05-04 05:54:00,39.3,38.0,29.92,NNW,337,0.0,0.0,96,0.00,,,0.00,Rainwise IP-100,2013-05-04 09:54:00,
2013-05-04 06:00:00,39.3,38.0,29.92,NNW,337,1.2,1.9,97,0.00,,,0.00,Rainwise IP-100,2013-05-04 10:00:00,
2013-05-04 06:05:00,39.3,38.0,29.93,NNW,337,0.0,1.4,97,0.00,,,0.00,Rainwise IP-100,2013-05-04 10:05:00,
2013-05-04 06:10:00,39.4,38.0,29.92,NNW,337,0.0,0.0,97,0.00,,,0.00,Rainwise IP-100,2013-05-04 10:10:00,
2013-05-04 06:15:00,40.0,39.0,29.92,NNW,337,1.9,2.6,97,0.00,,,0.00,Rainwise IP-100,2013-05-04 10:15:00,
2013-05-04 06:20:00,40.7,40.0,29.92,NNW,337,0.0,2.6,97,0.00,,,0.00,Rainwise IP-100,2013-05-04 10:20:00,
2013-05-04 06:25:00,41.2,40.0,29.93,NNW,337,1.2,1.6,97,0.00,,,0.00,Rainwise IP-100,2013-05-04 10:25:00,
2013-05-04 06:30:00,41.7,41.0,29.92,NNW,337,1.2,1.6,97,0.00,,,0.00,Rainwise IP-100,2013-05-04 10:30:00,
2013-05-04 06:35:00,41.9,41.0,29.92,NNE,22,1.2,2.1,96,0.00,,,0.00,Rainwise IP-100,2013-05-04 10:35:00,
2013-05-04 06:40:00,42.4,41.0,29.93,NNE,22,0.0,1.9,97,0.00,,,0.00,Rainwise IP-100,2013-05-04 10:40:00,
2013-05-04 06:45:00,43.3,42.0,29.93,NNE,22,2.3,2.8,97,0.00,,,0.00,Rainwise IP-100,2013-05-04 10:45:00,
2013-05-04 06:50:00,43.3,42.0,29.93,NNE,22,1.4,2.6,97,0.00,,,0.00,Rainwise IP-100,2013-05-04 10:50:00,
2013-05-04 06:55:00,43.4,42.0,29.93,NNE,22,0.0,2.1,97,0.00,,,0.00,Rainwise IP-100,2013-05-04 10:55:00,
2013-05-04 07:00:00,44.7,44.0,29.93,NNE,22,0.0,1.6,97,0.00,,,0.00,Rainwise IP-100,2013-05-04 11:00:00,
2013-05-04 07:05:00,46.1,45.0,29.93,NNE,22,0.0,2.3,98,0.00,,,0.00,Rainwise IP-100,2013-05-04 11:05:00,
2013-05-04 07:10:00,46.9,47.0,29.93,NNE,22,1.6,1.9,99,0.00,,,0.00,Rainwise IP-100,2013-05-04 11:10:00,
2013-05-04 07:16:00,46.8,47.0,29.94,NNE,22,1.2,3.0,99,0.00,,,0.00,Rainwise IP-100,2013-05-04 11:16:00,
2013-05-04 07:21:00,46.6,47.0,29.93,NNE,22,1.9,2.3,99,0.00,,,0.00,Rainwise IP-100,2013-05-04 11:21:00,
2013-05-04 07:26:00,46.2,45.0,29.93,NNE,22,2.8,3.3,98,0.00,,,0.00,Rainwise IP-100,2013-05-04 11:26:00,
2013-05-04 07:31:00,45.7,45.0,29.93,NE,45,2.3,4.0,97,0.00,,,0.00,Rainwise IP-100,2013-05-04 11:31:00,
2013-05-04 07:36:00,46.7,46.0,29.93,NE,45,2.3,3.3,97,0.00,,,0.00,Rainwise IP-100,2013-05-04 11:36:00,
2013-05-04 07:41:00,46.8,45.0,29.93,ENE,67,5.4,6.8,95,0.00,,,0.00,Rainwise IP-100,2013-05-04 11:41:00,
2013-05-04 07:46:00,46.6,45.0,29.93,North,360,3.5,6.5,93,0.00,,,0.00,Rainwise IP-100,2013-05-04 11:46:00,
2013-05-04 07:51:00,47.6,45.0,29.93,NNE,22,1.6,3.7,92,0.00,,,0.00,Rainwise IP-100,2013-05-04 11:51:00,
2013-05-04 07:56:00,48.1,46.0,29.94,ENE,67,2.6,3.7,91,0.00,,,0.00,Rainwise IP-100,2013-05-04 11:56:00,
2013-05-04 08:01:00,48.6,47.0,29.93,North,360,2.3,4.0,90,0.00,,,0.00,Rainwise IP-100,2013-05-04 12:01:00,
2013-05-04 08:06:00,49.3,46.0,29.93,ENE,67,4.0,5.8,88,0.00,,,0.00,Rainwise IP-100,2013-05-04 12:06:00,
2013-05-04 08:11:00,48.9,45.0,29.92,ENE,67,5.1,5.8,86,0.00,,,0.00,Rainwise IP-100,2013-05-04 12:11:00,
2013-05-04 08:16:00,48.5,44.0,29.93,ENE,67,5.1,6.8,84,0.00,,,0.00,Rainwise IP-100,2013-05-04 12:16:00,
2013-05-04 08:21:00,48.6,44.0,29.93,ENE,67,3.5,5.1,82,0.00,,,0.00,Rainwise IP-100,2013-05-04 12:21:00,
2013-05-04 08:26:00,49.1,44.0,29.93,ENE,67,1.9,4.0,82,0.00,,,0.00,Rainwise IP-100,2013-05-04 12:26:00,
2013-05-04 08:32:00,50.5,45.0,29.93,ENE,67,0.0,2.8,81,0.00,,,0.00,Rainwise IP-100,2013-05-04 12:32:00,
2013-05-04 08:37:00,51.7,46.0,29.92,ENE,67,2.8,4.2,80,0.00,,,0.00,Rainwise IP-100,2013-05-04 12:37:00,
2013-05-04 08:42:00,51.6,45.0,29.92,ENE,67,0.0,4.7,78,0.00,,,0.00,Rainwise IP-100,2013-05-04 12:42:00,
2013-05-04 08:47:00,52.6,45.0,29.93,North,360,2.3,5.1,76,0.00,,,0.00,Rainwise IP-100,2013-05-04 12:47:00,
2013-05-04 08:52:00,53.5,46.0,29.93,ENE,67,3.7,6.3,75,0.00,,,0.00,Rainwise IP-100,2013-05-04 12:52:00,
2013-05-04 08:57:00,53.0,44.0,29.92,ENE,67,4.0,5.1,73,0.00,,,0.00,Rainwise IP-100,2013-05-04 12:57:00,
2013-05-04 09:02:00,52.5,44.0,29.92,ENE,67,3.3,5.4,73,0.00,,,0.00,Rainwise IP-100,2013-05-04 13:02:00,
2013-05-04 09:07:00,52.8,44.0,29.92,ENE,67,2.6,4.4,72,0.00,,,0.00,Rainwise IP-100,2013-05-04 13:07:00,
2013-05-04 09:12:00,53.4,44.0,29.92,ENE,67,3.0,3.7,71,0.00,,,0.00,Rainwise IP-100,2013-05-04 13:12:00,
2013-05-04 09:17:00,54.1,44.0,29.92,ENE,67,2.3,3.7,70,0.00,,,0.00,Rainwise IP-100,2013-05-04 13:17:00,
2013-05-04 09:22:00,54.6,45.0,29.92,ENE,67,1.9,3.7,69,0.00,,,0.00,Rainwise IP-100,2013-05-04 13:22:00,
2013-05-04 09:28:00,55.3,45.0,29.92,ENE,67,3.7,4.0,68,0.00,,,0.00,Rainwise IP-100,2013-05-04 13:28:00,
2013-05-04 09:33:00,55.7,45.0,29.91,ENE,67,2.3,4.9,67,0.00,,,0.00,Rainwise IP-100,2013-05-04 13:33:00,
2013-05-04 09:38:00,56.5,45.0,29.91,NE,45,2.8,4.7,66,0.00,,,0.00,Rainwise IP-100,2013-05-04 13:38:00,
2013-05-04 09:43:00,57.8,47.0,29.92,ENE,67,2.3,4.7,65,0.00,,,0.00,Rainwise IP-100,2013-05-04 13:43:00,
2013-05-04 09:48:00,58.0,46.0,29.91,ENE,67,4.0,4.4,63,0.00,,,0.00,Rainwise IP-100,2013-05-04 13:48:00,
2013-05-04 09:53:00,57.8,45.0,29.91,ENE,67,3.7,5.4,61,0.00,,,0.00,Rainwise IP-100,2013-05-04 13:53:00,
2013-05-04 09:58:00,58.1,45.0,29.90,ENE,67,1.6,5.1,61,0.00,,,0.00,Rainwise IP-100,2013-05-04 13:58:00,
2013-05-04 10:03:00,58.9,46.0,29.91,ENE,67,2.6,4.0,61,0.00,,,0.00,Rainwise IP-100,2013-05-04 14:03:00,
2013-05-04 10:08:00,59.7,46.0,29.90,ENE,67,4.0,4.0,61,0.00,,,0.00,Rainwise IP-100,2013-05-04 14:08:00,
2013-05-04 10:13:00,59.8,46.0,29.90,ENE,67,2.1,4.2,59,0.00,,,0.00,Rainwise IP-100,2013-05-04 14:13:00,
2013-05-04 10:18:00,60.3,46.0,29.90,ENE,67,2.3,3.0,58,0.00,,,0.00,Rainwise IP-100,2013-05-04 14:18:00,
2013-05-04 10:23:00,61.8,47.0,29.90,ENE,67,1.9,3.3,58,0.00,,,0.00,Rainwise IP-100,2013-05-04 14:23:00,
2013-05-04 10:28:00,62.8,47.5,29.90,ENE,67,2.8,4.9,57,0.00,,,0.00,Rainwise IP-100,2013-05-04 14:28:00,
2013-05-04 10:33:00,62.6,46.0,29.90,NNW,337,1.6,4.4,55,0.00,,,0.00,Rainwise IP-100,2013-05-04 14:33:00,
2013-05-04 10:38:00,63.0,46.0,29.89,ESE,112,1.6,4.7,53,0.00,,,0.00,Rainwise IP-100,2013-05-04 14:38:00,
2013-05-04 10:44:00,63.6,46.0,29.89,WNW,292,1.9,6.1,52,0.00,,,0.00,Rainwise IP-100,2013-05-04 14:44:00,
2013-05-04 10:49:00,64.3,46.0,29.88,NE,45,4.2,7.0,50,0.00,,,0.00,Rainwise IP-100,2013-05-04 14:49:00,
2013-05-04 10:54:00,64.4,45.0,29.88,ENE,67,3.7,5.6,49,0.00,,,0.00,Rainwise IP-100,2013-05-04 14:54:00,
2013-05-04 10:59:00,64.3,44.0,29.88,ENE,67,0.0,6.8,48,0.00,,,0.00,Rainwise IP-100,2013-05-04 14:59:00,
2013-05-04 11:04:00,65.7,45.0,29.88,North,360,2.3,4.0,47,0.00,,,0.00,Rainwise IP-100,2013-05-04 15:04:00,
2013-05-04 11:09:00,65.9,44.0,29.88,ENE,67,2.8,7.0,46,0.00,,,0.00,Rainwise IP-100,2013-05-04 15:09:00,
2013-05-04 11:14:00,64.9,42.0,29.88,ENE,67,6.1,8.9,43,0.00,,,0.00,Rainwise IP-100,2013-05-04 15:14:00,
2013-05-04 11:19:00,64.7,40.0,29.88,ENE,67,6.5,9.8,41,0.00,,,0.00,Rainwise IP-100,2013-05-04 15:19:00,
2013-05-04 11:24:00,65.2,40.0,29.87,ENE,67,9.8,12.1,41,0.00,,,0.00,Rainwise IP-100,2013-05-04 15:24:00,
2013-05-04 11:29:00,66.3,41.0,29.87,NNE,22,6.3,10.0,40,0.00,,,0.00,Rainwise IP-100,2013-05-04 15:29:00,
2013-05-04 11:34:00,67.4,41.0,29.87,ENE,67,4.2,8.6,38,0.00,,,0.00,Rainwise IP-100,2013-05-04 15:34:00,
2013-05-04 11:39:00,67.6,40.0,29.87,ENE,67,7.9,9.1,37,0.00,,,0.00,Rainwise IP-100,2013-05-04 15:39:00,
2013-05-04 11:44:00,67.5,40.0,29.87,North,360,8.6,10.5,37,0.00,,,0.00,Rainwise IP-100,2013-05-04 15:44:00,
2013-05-04 11:49:00,67.8,41.0,29.86,NNW,337,1.4,11.0,38,0.00,,,0.00,Rainwise IP-100,2013-05-04 15:49:00,
2013-05-04 11:54:00,68.0,41.0,29.86,NNW,337,4.4,7.7,37,0.00,,,0.00,Rainwise IP-100,2013-05-04 15:54:00,
2013-05-04 12:00:00,68.1,41.0,29.86,NE,45,9.1,12.4,37,0.00,,,0.00,Rainwise IP-100,2013-05-04 16:00:00,
2013-05-04 12:05:00,67.5,40.0,29.86,ENE,67,1.2,11.0,37,0.00,,,0.00,Rainwise IP-100,2013-05-04 16:05:00,
2013-05-04 12:10:00,68.2,41.0,29.85,NNW,337,1.4,7.5,37,0.00,,,0.00,Rainwise IP-100,2013-05-04 16:10:00,
2013-05-04 12:15:00,69.5,41.0,29.85,NNE,22,1.4,6.5,36,0.00,,,0.00,Rainwise IP-100,2013-05-04 16:15:00,
2013-05-04 12:20:00,69.6,41.0,29.85,ENE,67,4.7,4.9,35,0.00,,,0.00,Rainwise IP-100,2013-05-04 16:20:00,
2013-05-04 12:25:00,69.2,40.0,29.84,NNW,337,2.6,5.1,35,0.00,,,0.00,Rainwise IP-100,2013-05-04 16:25:00,
2013-05-04 12:30:00,69.4,39.0,29.85,East,90,6.5,6.5,34,0.00,,,0.00,Rainwise IP-100,2013-05-04 16:30:00,
2013-05-04 12:35:00,69.7,40.0,29.85,North,360,1.2,6.8,34,0.00,,,0.00,Rainwise IP-100,2013-05-04 16:35:00,
2013-05-04 12:40:00,70.2,40.0,29.85,West,270,2.1,5.6,34,0.00,,,0.00,Rainwise IP-100,2013-05-04 16:40:00,
2013-05-04 12:45:00,70.6,40.0,29.84,WSW,247,5.4,7.2,33,0.00,,,0.00,Rainwise IP-100,2013-05-04 16:45:00,
2013-05-04 12:50:00,69.9,39.0,29.84,SSW,202,7.7,11.4,33,0.00,,,0.00,Rainwise IP-100,2013-05-04 16:50:00,
2013-05-04 12:55:00,69.3,39.0,29.84,SSE,157,4.7,9.6,33,0.00,,,0.00,Rainwise IP-100,2013-05-04 16:55:00,
2013-05-04 13:00:00,69.5,38.0,29.84,SSW,202,4.4,6.3,32,0.00,,,0.00,Rainwise IP-100,2013-05-04 17:00:00,
2013-05-04 13:05:00,69.8,38.0,29.84,SSW,202,4.9,10.5,32,0.00,,,0.00,Rainwise IP-100,2013-05-04 17:05:00,
2013-05-04 13:10:00,70.2,39.0,29.84,SSW,202,7.5,11.7,32,0.00,,,0.00,Rainwise IP-100,2013-05-04 17:10:00,
2013-05-04 13:16:00,70.4,39.0,29.84,SSW,202,4.2,10.0,32,0.00,,,0.00,Rainwise IP-100,2013-05-04 17:16:00,
2013-05-04 13:21:00,70.4,38.0,29.83,WSW,247,8.2,8.2,31,0.00,,,0.00,Rainwise IP-100,2013-05-04 17:21:00,
2013-05-04 13:26:00,70.2,38.0,29.83,SSE,157,5.1,9.3,31,0.00,,,0.00,Rainwise IP-100,2013-05-04 17:26:00,
2013-05-04 13:31:00,69.9,38.0,29.83,WSW,247,1.9,7.0,31,0.00,,,0.00,Rainwise IP-100,2013-05-04 17:31:00,
2013-05-04 13:36:00,70.3,38.0,29.83,WSW,247,8.2,14.0,30,0.00,,,0.00,Rainwise IP-100,2013-05-04 17:36:00,
2013-05-04 13:41:00,70.7,38.0,29.83,SSW,202,1.4,8.4,30,0.00,,,0.00,Rainwise IP-100,2013-05-04 17:41:00,
2013-05-04 13:46:00,71.0,38.0,29.83,WSW,247,4.2,7.7,30,0.00,,,0.00,Rainwise IP-100,2013-05-04 17:46:00,
2013-05-04 13:51:00,71.4,38.0,29.82,ESE,112,0.0,5.6,30,0.00,,,0.00,Rainwise IP-100,2013-05-04 17:51:00,
2013-05-04 13:56:00,71.3,37.0,29.82,NNE,22,1.2,5.4,29,0.00,,,0.00,Rainwise IP-100,2013-05-04 17:56:00,
2013-05-04 14:01:00,72.1,38.0,29.82,North,360,2.6,5.4,29,0.00,,,0.00,Rainwise IP-100,2013-05-04 18:01:00,
2013-05-04 14:06:00,72.7,38.0,29.82,ENE,67,2.3,11.9,29,0.00,,,0.00,Rainwise IP-100,2013-05-04 18:06:00,
2013-05-04 14:11:00,72.5,37.0,29.82,SSW,202,2.1,4.4,27,0.00,,,0.00,Rainwise IP-100,2013-05-04 18:11:00,
2013-05-04 14:16:00,72.1,36.0,29.81,NNE,22,4.0,9.1,27,0.00,,,0.00,Rainwise IP-100,2013-05-04 18:16:00,
2013-05-04 14:21:00,71.8,36.0,29.81,NNW,337,6.1,8.9,27,0.00,,,0.00,Rainwise IP-100,2013-05-04 18:21:00,
2013-05-04 14:26:00,72.7,37.0,29.81,NNW,337,1.6,7.5,27,0.00,,,0.00,Rainwise IP-100,2013-05-04 18:26:00,
2013-05-04 14:32:00,73.3,37.0,29.81,WSW,247,5.8,5.8,26,0.00,,,0.00,Rainwise IP-100,2013-05-04 18:32:00,
2013-05-04 14:37:00,73.3,37.0,29.80,SSW,202,6.5,9.6,26,0.00,,,0.00,Rainwise IP-100,2013-05-04 18:37:00,
2013-05-04 14:42:00,72.9,36.0,29.80,SSW,202,5.1,9.8,26,0.00,,,0.00,Rainwise IP-100,2013-05-04 18:42:00,
2013-05-04 14:47:00,72.6,36.0,29.80,West,270,0.0,8.6,26,0.00,,,0.00,Rainwise IP-100,2013-05-04 18:47:00,
2013-05-04 14:52:00,73.2,37.0,29.80,SW,225,7.0,11.7,26,0.00,,,0.00,Rainwise IP-100,2013-05-04 18:52:00,
2013-05-04 14:57:00,73.6,37.0,29.80,North,360,4.7,9.8,26,0.00,,,0.00,Rainwise IP-100,2013-05-04 18:57:00,
2013-05-04 15:02:00,73.4,37.0,29.79,NNE,22,2.6,6.8,26,0.00,,,0.00,Rainwise IP-100,2013-05-04 19:02:00,
2013-05-04 15:07:00,74.0,36.0,29.79,NNE,22,2.8,5.8,25,0.00,,,0.00,Rainwise IP-100,2013-05-04 19:07:00,
2013-05-04 15:12:00,74.8,37.0,29.78,WNW,292,1.9,8.6,25,0.00,,,0.00,Rainwise IP-100,2013-05-04 19:12:00,
2013-05-04 15:17:00,74.8,37.0,29.78,NNW,337,6.8,8.2,25,0.00,,,0.00,Rainwise IP-100,2013-05-04 19:17:00,
2013-05-04 15:22:00,74.5,37.0,29.78,ENE,67,6.3,7.7,25,0.00,,,0.00,Rainwise IP-100,2013-05-04 19:22:00,
2013-05-04 15:27:00,73.8,36.0,29.78,NNE,22,4.7,9.3,25,0.00,,,0.00,Rainwise IP-100,2013-05-04 19:27:00,
2013-05-04 15:32:00,73.4,36.0,29.78,NNE,22,2.3,7.2,25,0.00,,,0.00,Rainwise IP-100,2013-05-04 19:32:00,
2013-05-04 15:37:00,73.2,37.0,29.78,ENE,67,4.0,6.8,26,0.00,,,0.00,Rainwise IP-100,2013-05-04 19:37:00,
2013-05-04 15:42:00,73.1,36.0,29.78,ENE,67,2.1,8.2,26,0.00,,,0.00,Rainwise IP-100,2013-05-04 19:42:00,
2013-05-04 15:48:00,73.7,36.0,29.78,ESE,112,4.9,8.9,25,0.00,,,0.00,Rainwise IP-100,2013-05-04 19:48:00,
2013-05-04 15:53:00,73.7,36.0,29.78,SSW,202,4.4,7.7,25,0.00,,,0.00,Rainwise IP-100,2013-05-04 19:53:00,
2013-05-04 15:58:00,74.4,37.0,29.78,ESE,112,0.0,8.2,25,0.00,,,0.00,Rainwise IP-100,2013-05-04 19:58:00,
2013-05-04 16:03:00,74.5,37.0,29.77,SSE,157,3.7,6.5,25,0.00,,,0.00,Rainwise IP-100,2013-05-04 20:03:00,
2013-05-04 16:08:00,74.6,37.0,29.77,South,180,4.0,7.2,25,0.00,,,0.00,Rainwise IP-100,2013-05-04 20:08:00,
2013-05-04 16:13:00,74.8,36.0,29.77,NNW,337,1.4,7.2,24,0.00,,,0.00,Rainwise IP-100,2013-05-04 20:13:00,
2013-05-04 16:18:00,74.4,37.0,29.77,ENE,67,2.8,4.7,25,0.00,,,0.00,Rainwise IP-100,2013-05-04 20:18:00,
2013-05-04 16:23:00,74.7,37.0,29.77,ENE,67,3.0,8.4,25,0.00,,,0.00,Rainwise IP-100,2013-05-04 20:23:00,
2013-05-04 16:28:00,74.0,36.0,29.77,SSE,157,0.0,12.6,25,0.00,,,0.00,Rainwise IP-100,2013-05-04 20:28:00,
2013-05-04 16:33:00,73.9,36.0,29.77,SSW,202,3.5,10.3,25,0.00,,,0.00,Rainwise IP-100,2013-05-04 20:33:00,
2013-05-04 16:38:00,74.4,36.0,29.77,NNW,337,3.0,7.5,24,0.00,,,0.00,Rainwise IP-100,2013-05-04 20:38:00,
2013-05-04 16:43:00,74.3,36.0,29.76,ESE,112,0.0,6.1,24,0.00,,,0.00,Rainwise IP-100,2013-05-04 20:43:00,
2013-05-04 16:48:00,74.4,37.0,29.77,SSE,157,3.7,6.3,25,0.00,,,0.00,Rainwise IP-100,2013-05-04 20:48:00,
2013-05-04 16:53:00,74.2,36.0,29.77,SW,225,0.0,5.1,24,0.00,,,0.00,Rainwise IP-100,2013-05-04 20:53:00,
2013-05-04 16:58:00,74.4,36.0,29.77,South,180,0.0,6.3,24,0.00,,,0.00,Rainwise IP-100,2013-05-04 20:58:00,
2013-05-04 17:04:00,74.3,36.0,29.77,ENE,67,7.5,11.0,24,0.00,,,0.00,Rainwise IP-100,2013-05-04 21:04:00,
2013-05-04 17:09:00,73.7,35.0,29.77,ESE,112,3.0,8.2,24,0.00,,,0.00,Rainwise IP-100,2013-05-04 21:09:00,
2013-05-04 17:14:00,73.2,33.0,29.77,SE,135,3.7,8.6,23,0.00,,,0.00,Rainwise IP-100,2013-05-04 21:14:00,
2013-05-04 17:19:00,73.4,35.0,29.77,ENE,67,4.9,7.0,24,0.00,,,0.00,Rainwise IP-100,2013-05-04 21:19:00,
2013-05-04 17:24:00,73.0,35.0,29.77,ENE,67,1.4,9.8,24,0.00,,,0.00,Rainwise IP-100,2013-05-04 21:24:00,
2013-05-04 17:29:00,72.6,33.0,29.77,ENE,67,8.2,9.1,23,0.00,,,0.00,Rainwise IP-100,2013-05-04 21:29:00,
2013-05-04 17:34:00,72.9,33.0,29.77,SSE,157,2.8,8.4,23,0.00,,,0.00,Rainwise IP-100,2013-05-04 21:34:00,
2013-05-04 17:39:00,72.7,33.0,29.77,ENE,67,2.6,10.0,23,0.00,,,0.00,Rainwise IP-100,2013-05-04 21:39:00,
2013-05-04 17:44:00,72.5,33.0,29.77,East,90,5.4,7.0,23,0.00,,,0.00,Rainwise IP-100,2013-05-04 21:44:00,
2013-05-04 17:49:00,72.3,32.0,29.77,ENE,67,2.3,9.1,23,0.00,,,0.00,Rainwise IP-100,2013-05-04 21:49:00,
2013-05-04 17:54:00,72.5,33.0,29.77,ESE,112,2.3,5.1,23,0.00,,,0.00,Rainwise IP-100,2013-05-04 21:54:00,
2013-05-04 17:59:00,72.7,33.0,29.77,ENE,67,3.0,9.1,23,0.00,,,0.00,Rainwise IP-100,2013-05-04 21:59:00,
2013-05-04 18:04:00,72.2,32.0,29.77,SSE,157,0.0,8.2,23,0.00,,,0.00,Rainwise IP-100,2013-05-04 22:04:00,
2013-05-04 18:09:00,72.0,32.0,29.77,WSW,247,1.2,6.5,23,0.00,,,0.00,Rainwise IP-100,2013-05-04 22:09:00,
2013-05-04 18:14:00,72.1,32.0,29.77,ESE,112,3.0,6.8,23,0.00,,,0.00,Rainwise IP-100,2013-05-04 22:14:00,
2013-05-04 18:20:00,71.9,32.0,29.77,SSW,202,6.8,6.8,23,0.00,,,0.00,Rainwise IP-100,2013-05-04 22:20:00,
2013-05-04 18:25:00,71.5,32.0,29.77,SSW,202,3.5,11.0,23,0.00,,,0.00,Rainwise IP-100,2013-05-04 22:25:00,
2013-05-04 18:30:00,71.1,31.0,29.77,WSW,247,7.5,11.0,23,0.00,,,0.00,Rainwise IP-100,2013-05-04 22:30:00,
2013-05-04 18:35:00,70.7,31.0,29.77,ENE,67,0.0,12.8,23,0.00,,,0.00,Rainwise IP-100,2013-05-04 22:35:00,
2013-05-04 18:40:00,70.5,31.0,29.77,WSW,247,0.0,11.4,23,0.00,,,0.00,Rainwise IP-100,2013-05-04 22:40:00,
2013-05-04 18:45:00,70.3,31.0,29.77,SSE,157,1.4,7.7,22,0.00,,,0.00,Rainwise IP-100,2013-05-04 22:45:00,
2013-05-04 18:50:00,70.1,29.0,29.77,North,360,1.2,10.7,22,0.00,,,0.00,Rainwise IP-100,2013-05-04 22:50:00,
2013-05-04 18:55:00,69.9,29.0,29.77,ESE,112,0.0,7.5,22,0.00,,,0.00,Rainwise IP-100,2013-05-04 22:55:00,
2013-05-04 19:00:00,69.8,29.0,29.77,South,180,4.0,7.0,22,0.00,,,0.00,Rainwise IP-100,2013-05-04 23:00:00,
2013-05-04 19:05:00,69.7,29.0,29.77,West,270,1.9,12.1,22,0.00,,,0.00,Rainwise IP-100,2013-05-04 23:05:00,
2013-05-04 19:10:00,69.4,29.0,29.78,SSE,157,2.8,6.1,22,0.00,,,0.00,Rainwise IP-100,2013-05-04 23:10:00,
2013-05-04 19:15:00,69.0,29.0,29.77,West,270,3.5,6.3,22,0.00,,,0.00,Rainwise IP-100,2013-05-04 23:15:00,
2013-05-04 19:20:00,68.9,29.0,29.78,WSW,247,4.0,9.8,22,0.00,,,0.00,Rainwise IP-100,2013-05-04 23:20:00,
2013-05-04 19:25:00,68.7,28.0,29.78,WSW,247,1.4,8.6,22,0.00,,,0.00,Rainwise IP-100,2013-05-04 23:25:00,
2013-05-04 19:30:00,68.4,28.0,29.78,ENE,67,1.2,2.6,22,0.00,,,0.00,Rainwise IP-100,2013-05-04 23:30:00,
2013-05-04 19:36:00,68.0,28.0,29.78,ESE,112,1.9,7.2,22,0.00,,,0.00,Rainwise IP-100,2013-05-04 23:36:00,
2013-05-04 19:41:00,67.8,28.0,29.78,SW,225,1.9,8.6,22,0.00,,,0.00,Rainwise IP-100,2013-05-04 23:41:00,
2013-05-04 19:46:00,67.5,28.0,29.78,WSW,247,3.3,3.3,22,0.00,,,0.00,Rainwise IP-100,2013-05-04 23:46:00,
2013-05-04 19:51:00,66.9,28.0,29.79,WSW,247,2.1,5.4,23,0.00,,,0.00,Rainwise IP-100,2013-05-04 23:51:00,
2013-05-04 19:56:00,66.8,28.0,29.79,SE,135,4.0,4.0,23,0.00,,,0.00,Rainwise IP-100,2013-05-04 23:56:00,
2013-05-04 20:01:00,66.5,28.0,29.79,WSW,247,0.0,4.9,23,0.00,,,0.00,Rainwise IP-100,2013-05-05 00:01:00,
2013-05-04 20:06:00,66.1,28.0,29.79,SSE,157,2.3,6.1,24,0.00,,,0.00,Rainwise IP-100,2013-05-05 00:06:00,
2013-05-04 20:11:00,65.7,29.0,29.79,SSE,157,0.0,4.9,26,0.00,,,0.00,Rainwise IP-100,2013-05-05 00:11:00,
2013-05-04 20:16:00,65.3,32.0,29.80,SSE,157,2.1,4.4,28,0.00,,,0.00,Rainwise IP-100,2013-05-05 00:16:00,
2013-05-04 20:21:00,64.9,32.0,29.80,NE,45,0.0,7.2,29,0.00,,,0.00,Rainwise IP-100,2013-05-05 00:21:00,
2013-05-04 20:26:00,64.5,33.0,29.80,SSW,202,3.5,4.9,31,0.00,,,0.00,Rainwise IP-100,2013-05-05 00:26:00,
2013-05-04 20:31:00,64.1,35.0,29.81,SSE,157,7.0,7.0,33,0.00,,,0.00,Rainwise IP-100,2013-05-05 00:31:00,
2013-05-04 20:36:00,63.8,35.0,29.82,WSW,247,3.3,9.8,34,0.00,,,0.00,Rainwise IP-100,2013-05-05 00:36:00,
2013-05-04 20:41:00,63.5,36.0,29.82,ESE,112,3.5,7.9,35,0.00,,,0.00,Rainwise IP-100,2013-05-05 00:41:00,
2013-05-04 20:46:00,63.1,35.0,29.82,ESE,112,0.0,7.9,35,0.00,,,0.00,Rainwise IP-100,2013-05-05 00:46:00,
2013-05-04 20:52:00,62.7,36.0,29.82,SE,135,2.1,7.0,36,0.00,,,0.00,Rainwise IP-100,2013-05-05 00:52:00,
2013-05-04 20:57:00,62.4,36.0,29.82,WSW,247,3.0,5.8,36,0.00,,,0.00,Rainwise IP-100,2013-05-05 00:57:00,
2013-05-04 21:02:00,62.0,35.0,29.83,SSW,202,3.7,5.8,36,0.00,,,0.00,Rainwise IP-100,2013-05-05 01:02:00,
2013-05-04 21:07:00,61.7,35.0,29.83,SSW,202,5.1,5.8,37,0.00,,,0.00,Rainwise IP-100,2013-05-05 01:07:00,
2013-05-04 21:12:00,61.4,35.0,29.83,WSW,247,5.6,7.7,37,0.00,,,0.00,Rainwise IP-100,2013-05-05 01:12:00,
2013-05-04 21:17:00,61.0,35.0,29.83,SSW,202,3.5,8.9,37,0.00,,,0.00,Rainwise IP-100,2013-05-05 01:17:00,
2013-05-04 21:22:00,60.7,35.0,29.84,South,180,3.3,11.7,37,0.00,,,0.00,Rainwise IP-100,2013-05-05 01:22:00,
2013-05-04 21:27:00,60.4,35.0,29.84,SW,225,1.4,5.4,37,0.00,,,0.00,Rainwise IP-100,2013-05-05 01:27:00,
2013-05-04 21:32:00,60.0,33.0,29.84,SSW,202,3.3,8.6,37,0.00,,,0.00,Rainwise IP-100,2013-05-05 01:32:00,
2013-05-04 21:37:00,59.5,33.0,29.84,SSW,202,9.6,11.2,37,0.00,,,0.00,Rainwise IP-100,2013-05-05 01:37:00,
2013-05-04 21:42:00,59.1,33.0,29.85,ESE,112,4.4,9.8,37,0.00,,,0.00,Rainwise IP-100,2013-05-05 01:42:00,
2013-05-04 21:47:00,58.7,33.0,29.85,SSW,202,5.6,11.0,37,0.00,,,0.00,Rainwise IP-100,2013-05-05 01:47:00,
2013-05-04 21:52:00,58.3,33.0,29.85,South,180,4.0,11.4,38,0.00,,,0.00,Rainwise IP-100,2013-05-05 01:52:00,
2013-05-04 21:57:00,58.0,33.0,29.85,West,270,3.7,7.0,39,0.00,,,0.00,Rainwise IP-100,2013-05-05 01:57:00,
2013-05-04 22:02:00,57.7,33.0,29.85,East,90,2.3,8.6,39,0.00,,,0.00,Rainwise IP-100,2013-05-05 02:02:00,
2013-05-04 22:08:00,57.3,33.0,29.85,NNW,337,1.4,6.8,40,0.00,,,0.00,Rainwise IP-100,2013-05-05 02:08:00,
2013-05-04 22:13:00,57.0,33.0,29.86,SSE,157,8.9,8.9,41,0.00,,,0.00,Rainwise IP-100,2013-05-05 02:13:00,
2013-05-04 22:18:00,56.6,33.0,29.86,SW,225,1.9,8.9,42,0.00,,,0.00,Rainwise IP-100,2013-05-05 02:18:00,
2013-05-04 22:23:00,56.2,33.0,29.86,East,90,3.3,7.5,43,0.00,,,0.00,Rainwise IP-100,2013-05-05 02:23:00,
2013-05-04 22:28:00,55.9,35.0,29.86,WSW,247,7.7,7.7,44,0.00,,,0.00,Rainwise IP-100,2013-05-05 02:28:00,
2013-05-04 22:33:00,55.6,35.0,29.86,South,180,3.5,7.5,45,0.00,,,0.00,Rainwise IP-100,2013-05-05 02:33:00,
2013-05-04 22:38:00,55.3,35.0,29.86,WSW,247,2.6,5.1,46,0.00,,,0.00,Rainwise IP-100,2013-05-05 02:38:00,
2013-05-04 22:43:00,55.0,36.0,29.86,SSE,157,1.2,3.0,47,0.00,,,0.00,Rainwise IP-100,2013-05-05 02:43:00,
2013-05-04 22:48:00,54.7,35.0,29.87,WSW,247,2.6,3.7,47,0.00,,,0.00,Rainwise IP-100,2013-05-05 02:48:00,
2013-05-04 22:53:00,54.4,36.0,29.87,SSE,157,0.0,4.0,48,0.00,,,0.00,Rainwise IP-100,2013-05-05 02:53:00,
2013-05-04 22:58:00,54.0,36.0,29.86,SSE,157,4.0,4.9,49,0.00,,,0.00,Rainwise IP-100,2013-05-05 02:58:00,
2013-05-04 23:03:00,53.7,36.0,29.86,SSW,202,2.6,4.9,50,0.00,,,0.00,Rainwise IP-100,2013-05-05 03:03:00,
2013-05-04 23:08:00,53.5,36.0,29.87,SSW,202,1.9,6.1,51,0.00,,,0.00,Rainwise IP-100,2013-05-05 03:08:00,
2013-05-04 23:13:00,53.3,36.0,29.87,ESE,112,2.3,5.8,51,0.00,,,0.00,Rainwise IP-100,2013-05-05 03:13:00,
2013-05-04 23:18:00,53.1,35.0,29.87,West,270,0.0,5.4,51,0.00,,,0.00,Rainwise IP-100,2013-05-05 03:18:00,
2013-05-04 23:24:00,52.8,35.0,29.87,SSW,202,1.2,3.0,51,0.00,,,0.00,Rainwise IP-100,2013-05-05 03:24:00,
2013-05-04 23:29:00,52.6,35.0,29.87,ESE,112,1.2,4.9,51,0.00,,,0.00,Rainwise IP-100,2013-05-05 03:29:00,
2013-05-04 23:34:00,52.3,35.0,29.87,SSE,157,0.0,4.4,52,0.00,,,0.00,Rainwise IP-100,2013-05-05 03:34:00,
2013-05-04 23:39:00,52.0,35.0,29.87,SSE,157,2.3,3.3,52,0.00,,,0.00,Rainwise IP-100,2013-05-05 03:39:00,
2013-05-04 23:44:00,51.7,36.0,29.87,SE,135,3.3,4.4,53,0.00,,,0.00,Rainwise IP-100,2013-05-05 03:44:00,
2013-05-04 23:49:00,51.5,36.0,29.87,SSW,202,2.6,5.1,53,0.00,,,0.00,Rainwise IP-100,2013-05-05 03:49:00,
2013-05-04 23:54:00,51.1,35.0,29.87,SSE,157,5.8,6.1,53,0.00,,,0.00,Rainwise IP-100,2013-05-05 03:54:00,
2013-05-04 23:59:00,50.9,36.0,29.87,SSW,202,2.8,6.8,54,0.00,,,0.00,Rainwise IP-100,2013-05-05 03:59:00,